Minot AFB, ND

4:16 AM CDT on October 15, 2019 (GMT -0500)
Minot Air Force Base

Weather History for KMIB - August, 2019

Change the Weather History Date:

Saturday, August 24, 2019

  Actual Average Record
Temperature  
Mean Temperature 72 °F -  
Max Temperature 81 °F 79 °F 102 °F (1997)
Min Temperature 62 °F 52 °F 36 °F (2007)
Cooling Degree Days 6    
Growing Degree Days 22 (Base 50)    
Moisture  
Dew Point 64 °F    
Average Humidity 80    
Maximum Humidity 94    
Minimum Humidity 57    
Precipitation  
Precipitation 1.76 in - - ()
Sea Level Pressure  
Sea Level Pressure 29.79 in    
Wind  
Wind Speed 13 mph ()    
Max Wind Speed 25 mph    
Max Gust Speed 39 mph    
Visibility 8.0 miles    
Events Rain , Thunderstorm    
Averages and records for this station are not official NWS values.
T = Trace of Precipitation, MM = Missing Value Source: Averaged Metar Reports

Daily Weather History Graph

Daily Weather History Graph

Search for Another Location

Airport or City:

Astronomy

Aug. 24, 2019 Rise Set
Actual Time 6:51 AM CDT 8:43 PM CDT
Civil Twilight 6:18 AM CDT 9:16 PM CDT
Nautical Twilight 5:36 AM CDT 9:57 PM CDT
Astronomical Twilight 4:51 AM CDT 10:42 PM CDT
Moon 12:35 AM CDT (8/24) 4:14 PM CDT (8/24)
Length of Visible Light 14h 58m
Length of Day
13h 51m
Last Quarter, 39% of the Moon is Illuminated
Aug 24
Last Quarter
Aug 30
New
Sep 5
First Quarter
Sep 13
Full
Sep 21
Last Quarter

Hourly Weather History & Observations

Time (CDT) Temp. Heat Index Dew Point Humidity Pressure Visibility Wind Dir Wind Speed Gust Speed Precip Events Conditions
12:56 AM 68.9 °F - 64.6 °F 86% 29.92 in 10.0 mi SSE 13.8 mph - N/A   Mostly Cloudy
1:56 AM 68.4 °F - 64.2 °F 87% 29.91 in 10.0 mi SSE 11.5 mph - N/A   Scattered Clouds
2:56 AM 67.8 °F - 63.9 °F 87% 29.88 in 10.0 mi SSE 10.4 mph - N/A   Scattered Clouds
3:56 AM 67.5 °F - 63.7 °F 88% 29.88 in 10.0 mi SSE 9.2 mph - N/A   Partly Cloudy
4:56 AM 68.0 °F - 64.2 °F 88% 29.84 in 10.0 mi South 13.8 mph - N/A   Partly Cloudy
5:56 AM 67.8 °F - 64.8 °F 90% 29.84 in 10.0 mi South 9.2 mph - N/A   Clear
6:16 AM 68.0 °F - 64.4 °F 88% 29.84 in 10.0 mi South 9.2 mph - N/A   Mostly Cloudy
6:31 AM 68.0 °F - 64.4 °F 88% 29.84 in 10.0 mi SSE 9.2 mph - N/A   Overcast
6:56 AM 68.2 °F - 64.8 °F 89% 29.83 in 10.0 mi South 10.4 mph - N/A   Overcast
7:56 AM 69.1 °F - 65.3 °F 88% 29.83 in 10.0 mi South 10.4 mph - N/A   Overcast
8:56 AM 71.1 °F - 66.0 °F 84% 29.84 in 10.0 mi South 17.3 mph 26.5 mph N/A   Scattered Clouds
9:56 AM 73.6 °F - 65.8 °F 77% 29.83 in 10.0 mi South 18.4 mph 24.2 mph N/A   Scattered Clouds
10:01 AM 73.4 °F - 66.2 °F 78% 29.82 in 10.0 mi South 17.3 mph - N/A   Mostly Cloudy
10:06 AM 73.4 °F - 66.2 °F 78% 29.82 in 10.0 mi South 17.3 mph - N/A   Scattered Clouds
10:11 AM 73.4 °F - 66.2 °F 78% 29.82 in 10.0 mi South 16.1 mph - N/A   Mostly Cloudy
10:21 AM 73.4 °F - 66.2 °F 78% 29.82 in 10.0 mi South 15.0 mph 23.0 mph N/A   Mostly Cloudy
10:51 AM 75.2 °F - 66.2 °F 73% 29.81 in 10.0 mi South 19.6 mph 27.6 mph N/A   Scattered Clouds
10:56 AM 76.5 °F - 66.7 °F 72% 29.80 in 10.0 mi South 25.3 mph - N/A   Scattered Clouds
11:01 AM 75.2 °F - 66.2 °F 73% 29.80 in 10.0 mi South 18.4 mph 26.5 mph N/A   Mostly Cloudy
11:06 AM 75.2 °F - 66.2 °F 73% 29.80 in 10.0 mi South 18.4 mph 27.6 mph N/A   Scattered Clouds
11:56 AM 75.6 °F - 66.6 °F 74% 29.80 in 10.0 mi South 21.9 mph - N/A   Scattered Clouds
12:01 PM 75.2 °F - 66.2 °F 73% 29.80 in 10.0 mi South 23.0 mph 28.8 mph N/A   Mostly Cloudy
12:56 PM 77.9 °F - 66.4 °F 68% 29.80 in 10.0 mi South 21.9 mph 28.8 mph N/A   Partly Cloudy
1:56 PM 79.3 °F - 65.7 °F 63% 29.79 in 10.0 mi South 20.7 mph 27.6 mph N/A   Partly Cloudy
2:56 PM 80.6 °F 83.2 °F 68.0 °F 65% 29.79 in 10.0 mi South 20.7 mph 25.3 mph N/A   Scattered Clouds
3:56 PM 80.6 °F 83.2 °F 68.0 °F 65% 29.79 in 10.0 mi South 20.7 mph 28.8 mph N/A   Scattered Clouds
4:56 PM 81.1 °F 83.4 °F 66.4 °F 61% 29.74 in 10.0 mi South 21.9 mph 25.3 mph N/A   Clear
5:56 PM 79.5 °F - 66.7 °F 65% 29.75 in 10.0 mi SSE 19.6 mph 25.3 mph N/A   Clear
6:56 PM 76.5 °F - 65.8 °F 70% 29.74 in 10.0 mi South 15.0 mph - N/A   Clear
7:56 PM 75.4 °F - 65.3 °F 71% 29.73 in 10.0 mi SSE 17.3 mph - N/A   Clear
8:51 PM 75.2 °F - 66.2 °F 73% 29.75 in 10.0 mi SSW 13.8 mph - N/A   Scattered Clouds
8:56 PM 74.5 °F - 65.7 °F 74% 29.75 in 10.0 mi SSW 11.5 mph - N/A Thunderstorm Mostly Cloudy
8:57 PM 75.2 °F - 66.2 °F 73% 29.75 in 10.0 mi SW 10.4 mph - N/A Thunderstorm Thunderstorm
9:14 PM 73.4 °F - 57.2 °F 57% 29.75 in 10.0 mi SSW 9.2 mph - N/A Thunderstorm Overcast
9:26 PM 71.6 °F - 57.2 °F 60% 29.75 in 10.0 mi South 4.6 mph - N/A Thunderstorm Thunderstorm
9:42 PM 71.6 °F - 59.0 °F 64% 29.79 in 10.0 mi WSW 23.0 mph 38.0 mph N/A Rain , Thunderstorm Light Thunderstorms and Rain
9:48 PM 68.0 °F - 60.8 °F 78% 29.77 in 4.0 mi West 10.4 mph 38.0 mph N/A Rain , Thunderstorm Heavy Rain
9:53 PM 64.4 °F - 60.8 °F 88% 29.78 in 1.6 mi WSW 8.1 mph - N/A Rain , Thunderstorm Light Rain
9:56 PM 64.6 °F - 60.6 °F 87% 29.79 in 2.0 mi WSW 9.2 mph - 0.20 in Rain , Thunderstorm Light Rain
10:01 PM 64.4 °F - 60.8 °F 88% 29.77 in 3.0 mi WSW 12.7 mph - N/A Rain , Thunderstorm Heavy Rain
10:03 PM 64.4 °F - 60.8 °F 88% 29.76 in 2.2 mi West 10.4 mph - N/A Rain , Thunderstorm Heavy Thunderstorms and Rain
10:40 PM 64.4 °F - 60.8 °F 88% 29.77 in 2.2 mi SSW 15.0 mph 21.9 mph N/A Rain , Thunderstorm Heavy Thunderstorms and Rain
10:50 PM 64.4 °F - 60.8 °F 88% 29.76 in 0.9 mi WNW 9.2 mph 21.9 mph N/A Rain , Thunderstorm Heavy Thunderstorms and Rain
10:56 PM 64.8 °F - 61.7 °F 90% 29.75 in 1.6 mi WSW 11.5 mph - 0.91 in Rain , Thunderstorm Heavy Thunderstorms and Rain
10:57 PM 66.2 °F - 62.6 °F 88% 29.76 in 2.8 mi WSW 9.2 mph - N/A Rain , Thunderstorm Light Rain
11:03 PM 66.2 °F - 62.6 °F 88% 29.75 in 9.0 mi WSW 6.9 mph - N/A Rain , Thunderstorm Light Thunderstorms and Rain
11:08 PM 66.2 °F - 62.6 °F 88% 29.76 in 10.0 mi SW 18.4 mph 25.3 mph N/A Rain , Thunderstorm Light Thunderstorms and Rain
11:18 PM 64.4 °F - 60.8 °F 88% 29.78 in 1.5 mi WSW 19.6 mph 39.1 mph N/A Rain , Thunderstorm Heavy Thunderstorms and Rain
11:28 PM 62.6 °F - 59.0 °F 88% 29.76 in 1.1 mi West 6.9 mph 20.7 mph N/A Rain , Thunderstorm Heavy Thunderstorms and Rain
11:38 PM 62.6 °F - 59.0 °F 88% 29.75 in 2.5 mi SSE 8.1 mph - N/A Rain , Thunderstorm Heavy Thunderstorms and Rain
11:48 PM 62.6 °F - 60.8 °F 94% 29.74 in 5.0 mi East 11.5 mph - N/A Rain , Thunderstorm Light Thunderstorms and Rain
11:49 PM 62.6 °F - 60.8 °F 94% 29.75 in 6.0 mi ESE 10.4 mph - N/A Rain , Thunderstorm Light Rain
11:56 PM 62.6 °F - 60.4 °F 93% 29.74 in 10.0 mi East 10.4 mph - 0.65 in Rain Light Rain